Grants-Milan, NM

1:36 AM MDT on March 30, 2017 (GMT -0600)
Grants-Milan Municipal

Weather History for KGNT - September, 2013

Change the Weather History Date:

Wednesday, September 25, 2013

  Actual Average Record
Temperature  
Mean Temperature 58 °F -  
Max Temperature 77 °F 77 °F 89 °F (1993)
Min Temperature 38 °F 41 °F 23 °F (2000)
Degree Days  
Heating Degree Days 8    
Growing Degree Days 8 (Base 50)    
Moisture  
Dew Point 33 °F    
Average Humidity 44    
Maximum Humidity 88    
Minimum Humidity 13    
Precipitation  
Precipitation 0.00 in - - ()
Sea Level Pressure  
Sea Level Pressure 30.02 in    
Wind  
Wind Speed 7 mph (South)    
Max Wind Speed 17 mph    
Max Gust Speed 29 mph    
Visibility 10 miles    
Events      
Averages and records for this station are not official NWS values.
T = Trace of Precipitation, MM = Missing Value Source: NWS Daily Summary

Daily Weather History Graph

Daily Weather History Graph

Search for Another Location

Airport or City:

Trip Planner

Search our weather history database for the weather conditions in past years. The results will help you decide how hot, cold, wet, or windy it might be!

Date:

Astronomy

Sep. 25, 2013 Rise Set
Actual Time 7:02 AM MDT 7:03 PM MDT
Civil Twilight 6:36 AM MDT 7:28 PM MDT
Nautical Twilight 6:07 AM MDT 7:58 PM MDT
Astronomical Twilight 5:37 AM MDT 8:28 PM MDT
Moon 11:24 PM MDT (9/25) 12:58 PM MDT (9/25)
Length of Visible Light 12h 52m
Length of Day
12h 01m
Waning Gibbous, 63% of the Moon is Illuminated
Sep 25
Waning Gibbous
Sep 26
Last Quarter
Oct 4
New
Oct 11
First Quarter
Oct 18
Full

Hourly Weather History & Observations

Time (MDT) Temp. Windchill Dew Point Humidity Pressure Visibility Wind Dir Wind Speed Gust Speed Precip Events Conditions
12:15 AM 49.8 °F - 36.9 °F 61% 30.15 in 10.0 mi SSW 4.6 mph - N/A   Clear
12:35 AM 51.8 °F - 36.5 °F 56% 30.15 in 10.0 mi South 4.6 mph - N/A   Clear
12:55 AM 47.7 °F - 37.4 °F 68% 30.15 in 10.0 mi SSE 8.1 mph - N/A   Clear
1:35 AM 46.6 °F - 37.4 °F 70% 30.14 in 10.0 mi South 6.9 mph - N/A   Clear
1:55 AM 48.0 °F - 37.2 °F 66% 30.14 in 10.0 mi South 5.8 mph - N/A   Clear
2:15 AM 47.7 °F - 37.0 °F 67% 30.14 in 10.0 mi South 6.9 mph - N/A   Clear
2:35 AM 46.9 °F - 36.0 °F 66% 30.13 in 10.0 mi SSW 5.8 mph - N/A   Clear
2:55 AM 45.9 °F 42.3 °F 36.3 °F 69% 30.12 in 10.0 mi South 6.9 mph - N/A   Clear
3:35 AM 47.1 °F - 36.0 °F 65% 30.12 in 10.0 mi South 8.1 mph - N/A   Clear
3:55 AM 48.2 °F - 36.3 °F 63% 30.11 in 10.0 mi South 9.2 mph - N/A   Clear
4:15 AM 48.0 °F - 36.1 °F 63% 30.11 in 10.0 mi Calm Calm - N/A   Clear
4:35 AM 42.1 °F 40.2 °F 36.9 °F 82% 30.11 in 10.0 mi WNW 3.5 mph - N/A   Clear
4:55 AM 41.2 °F 39.2 °F 36.5 °F 83% 30.11 in 10.0 mi NW 3.5 mph - N/A   Clear
5:15 AM 40.6 °F - 35.2 °F 81% 30.10 in 10.0 mi Calm Calm - N/A   Clear
5:35 AM 39.4 °F - 36.0 °F 88% 30.10 in 10.0 mi Calm Calm - N/A   Clear
5:55 AM 38.1 °F - 34.2 °F 86% 30.10 in 10.0 mi Calm Calm - N/A   Clear
6:15 AM 41.0 °F 36.4 °F 36.1 °F 83% 30.10 in 10.0 mi South 6.9 mph - N/A   Clear
6:35 AM 41.7 °F 36.7 °F 36.1 °F 81% 30.10 in 10.0 mi South 8.1 mph - N/A   Clear
6:55 AM 41.4 °F 37.6 °F 36.1 °F 82% 30.10 in 10.0 mi SSE 5.8 mph - N/A   Clear
7:15 AM 40.8 °F 37.8 °F 36.0 °F 83% 30.10 in 10.0 mi South 4.6 mph - N/A   Clear
7:35 AM 42.1 °F 37.7 °F 36.5 °F 81% 30.10 in 10.0 mi South 6.9 mph - N/A   Clear
7:55 AM 45.1 °F 42.0 °F 37.2 °F 74% 30.11 in 10.0 mi SSE 5.8 mph - N/A   Clear
8:15 AM 49.6 °F - 37.2 °F 62% 30.10 in 10.0 mi SE 9.2 mph - N/A   Clear
8:35 AM 52.2 °F - 36.1 °F 54% 30.10 in 10.0 mi SE 8.1 mph - N/A   Clear
8:55 AM 54.0 °F - 37.2 °F 53% 30.10 in 10.0 mi SE 8.1 mph - N/A   Clear
9:15 AM 56.3 °F - 38.3 °F 51% 30.10 in 10.0 mi SE 10.4 mph - N/A   Clear
9:35 AM 59.7 °F - 38.7 °F 46% 30.09 in 10.0 mi ESE 11.5 mph - N/A   Clear
9:55 AM 63.5 °F - 35.4 °F 35% 30.09 in 10.0 mi SE 15.0 mph 19.6 mph N/A   Clear
10:15 AM 65.5 °F - 36.1 °F 34% 30.08 in 10.0 mi SSE 11.5 mph - N/A   Clear
10:35 AM 66.9 °F - 36.3 °F 32% 30.07 in 10.0 mi SSE 13.8 mph - N/A   Clear
10:55 AM 68.7 °F - 37.0 °F 31% 30.07 in 10.0 mi SSE 12.7 mph 20.7 mph N/A   Clear
11:15 AM 70.7 °F - 37.6 °F 30% 30.06 in 10.0 mi SSE 12.7 mph 17.3 mph N/A   Clear
11:35 AM 73.0 °F - 35.8 °F 26% 30.06 in 10.0 mi SW 17.3 mph 24.2 mph N/A   Clear
12:15 PM 73.6 °F - 36.3 °F 26% 30.03 in 10.0 mi SW 15.0 mph 27.6 mph N/A   Clear
12:35 PM 74.1 °F - 36.1 °F 25% 30.02 in 10.0 mi WSW 17.3 mph 25.3 mph N/A   Clear
12:55 PM 75.0 °F - 34.9 °F 23% 30.00 in 10.0 mi SSW 17.3 mph 28.8 mph N/A   Clear
1:15 PM 74.8 °F - 35.2 °F 24% 29.99 in 10.0 mi SW 11.5 mph 25.3 mph N/A   Clear
1:35 PM 75.6 °F - 36.0 °F 24% 29.98 in 10.0 mi WSW 9.2 mph 18.4 mph N/A   Clear
1:55 PM 75.7 °F - 35.1 °F 23% 29.97 in 10.0 mi SSW 9.2 mph 20.7 mph N/A   Clear
2:15 PM 76.3 °F - 35.1 °F 22% 29.95 in 10.0 mi SW 6.9 mph 19.6 mph N/A   Clear
2:55 PM 77.0 °F - 33.3 °F 20% 29.94 in 10.0 mi SW 11.5 mph 20.7 mph N/A   Clear
3:15 PM 77.4 °F - 32.5 °F 20% 29.93 in 10.0 mi SSW 10.4 mph 21.9 mph N/A   Clear
3:35 PM 77.9 °F - 32.0 °F 19% 29.93 in 10.0 mi SSW 12.7 mph 23.0 mph N/A   Clear
3:55 PM 77.7 °F - 30.4 °F 18% 29.93 in 10.0 mi WSW 17.3 mph 21.9 mph N/A   Clear
4:15 PM 77.9 °F - 31.5 °F 18% 29.92 in 10.0 mi West 11.5 mph 24.2 mph N/A   Clear
4:35 PM 77.7 °F - 25.9 °F 15% 29.92 in 10.0 mi SW 16.1 mph 24.2 mph N/A   Clear
4:55 PM 77.7 °F - 24.3 °F 14% 29.91 in 10.0 mi WSW 15.0 mph 25.3 mph N/A   Clear
5:15 PM 77.0 °F - 23.2 °F 14% 29.91 in 10.0 mi WSW 17.3 mph 25.3 mph N/A   Clear
5:35 PM 76.5 °F - 22.3 °F 13% 29.91 in 10.0 mi West 11.5 mph 24.2 mph N/A   Clear
5:55 PM 75.6 °F - 24.3 °F 15% 29.91 in 10.0 mi SW 8.1 mph 12.7 mph N/A   Clear
6:15 PM 74.3 °F - 25.9 °F 17% 29.90 in 10.0 mi SW 10.4 mph 21.9 mph N/A   Clear
6:35 PM 73.4 °F - 24.4 °F 16% 29.90 in 10.0 mi SW 10.4 mph 18.4 mph N/A   Clear
6:55 PM 71.4 °F - 23.5 °F 17% 29.91 in 10.0 mi SW 5.8 mph 17.3 mph N/A   Clear
7:15 PM 66.4 °F - 27.5 °F 23% 29.91 in 10.0 mi SSE 3.5 mph - N/A   Clear
7:35 PM 65.5 °F - 25.3 °F 22% 29.91 in 10.0 mi SSE 3.5 mph - N/A   Clear
7:55 PM 62.8 °F - 28.0 °F 27% 29.92 in 10.0 mi SSW 6.9 mph - N/A   Clear
8:15 PM 63.3 °F - 27.5 °F 26% 29.92 in 10.0 mi Calm Calm - N/A   Clear
8:35 PM 57.4 °F - 30.7 °F 36% 29.92 in 10.0 mi SSE 4.6 mph - N/A   Clear
8:55 PM 58.3 °F - 29.3 °F 33% 29.93 in 10.0 mi South 5.8 mph - N/A   Clear
9:15 PM 61.2 °F - 29.8 °F 31% 29.94 in 10.0 mi South 6.9 mph - N/A   Clear
9:35 PM 64.4 °F - 28.8 °F 26% 29.94 in 10.0 mi South 3.5 mph - N/A   Clear
9:55 PM 61.0 °F - 30.9 °F 32% 29.94 in 10.0 mi SSW 3.5 mph - N/A   Clear
10:15 PM 56.5 °F - 32.7 °F 41% 29.95 in 10.0 mi SE 3.5 mph - N/A   Clear
10:35 PM 56.3 °F - 32.4 °F 40% 29.95 in 10.0 mi SE 8.1 mph - N/A   Clear
10:55 PM 55.0 °F - 33.4 °F 44% 29.95 in 10.0 mi SSE 6.9 mph - N/A   Clear
11:15 PM 55.2 °F - 33.1 °F 43% 29.95 in 10.0 mi SE 6.9 mph - N/A   Clear
11:35 PM 52.0 °F - 34.5 °F 51% 29.95 in 10.0 mi South 5.8 mph - N/A   Clear
11:55 PM 52.7 °F - 34.2 °F 49% 29.96 in 10.0 mi SSE 4.6 mph - N/A   Clear